Weather History for Avoca, PA

Change the Weather History Date:

Saturday, January 26, 2013

  Actual Average Record
Temperature  
Mean Temperature 15 °F 26 °F  
Max Temperature 23 °F 33 °F 67 °F (1950)
Min Temperature 7 °F 18 °F -5 °F (1961)
Degree Days  
Heating Degree Days 50 39  
Month to date heating degree days 963 1013  
Since 1 July heating degree days 3077 3391  
Cooling Degree Days 0 0  
Month to date cooling degree days 0 0  
Year to date cooling degree days 0 0  
Moisture  
Dew Point 6 °F    
Average Humidity 69    
Maximum Humidity 91    
Minimum Humidity 47    
Precipitation  
Precipitation T in 0.08 in 0.98 in (1986)
Month to date precipitation 0.78 1.97  
Year to date precipitation 0.78 1.97  
Sea Level Pressure  
Sea Level Pressure 30.18 in    
Wind  
Wind Speed 4 mph (WNW)    
Max Wind Speed 16 mph    
Max Gust Speed 21 mph    
Visibility 9 miles    
Events      
T = Trace of Precipitation, MM = Missing Value Source: NWS Daily Summary

Daily Weather History Graph

Daily Weather History Graph

Search for Another Location

Airport:

Trip Planner

Search our weather history database for the weather conditions in past years. The results will help you decide how hot, cold, wet, or windy it might be!

Date:

Astronomy

Jan. 26, 2013 Rise Set
Actual Time 7:19 AM EST 5:12 PM EST
Civil Twilight 6:49 AM EST 5:41 PM EST
Nautical Twilight 6:16 AM EST 6:15 PM EST
Astronomical Twilight 5:43 AM EST 6:47 PM EST
Moon 5:05 PM EST (1/26) 6:35 AM EST (1/26)
Length of Visible Light 10h 51m
Length of Day
9h 52m
Full, 100% of the Moon is Illuminated
Jan 26
Full
Jan 26
Full
Feb 3
Last Quarter
Feb 10
New
Feb 17
First Quarter

Hourly Weather History & Observations

Time (EST) Temp. Windchill Dew Point Humidity Pressure Visibility Wind Dir Wind Speed Gust Speed Precip Events Conditions
12:54 AM 10.0 °F - 6.1 °F 84% 30.07 in 7.0 mi Calm Calm - N/A   Mostly Cloudy
1:09 AM 8.6 °F - 5.0 °F 85% 30.02 in 7.0 mi Calm Calm - N/A   Partly Cloudy
1:54 AM 9.0 °F - 5.0 °F 84% 30.07 in 8.0 mi Calm Calm - N/A   Partly Cloudy
2:08 AM 8.6 °F - 5.0 °F 85% 30.02 in 7.0 mi Calm Calm - N/A   Mostly Cloudy
2:54 AM 9.0 °F - 6.1 °F 88% 30.08 in 7.0 mi Calm Calm - N/A   Mostly Cloudy
3:32 AM 8.6 °F - 6.8 °F 92% 30.03 in 8.0 mi Calm Calm - N/A   Overcast
3:54 AM 10.9 °F - 7.0 °F 84% 30.08 in 8.0 mi Calm Calm - N/A   Overcast
4:54 AM 9.0 °F 2.4 °F 6.1 °F 88% 30.09 in 8.0 mi SSW 3.5 mph - N/A   Mostly Cloudy
5:04 AM 8.6 °F 0.1 °F 5.0 °F 85% 30.05 in 8.0 mi SW 4.6 mph - N/A   Mostly Cloudy
5:19 AM 8.6 °F - 5.0 °F 85% 30.05 in 9.0 mi Calm Calm - N/A   Mostly Cloudy
5:54 AM 8.1 °F -2.0 °F 5.0 °F 87% 30.11 in 8.0 mi WSW 5.8 mph - N/A   Overcast
6:21 AM 8.6 °F - 5.0 °F 85% 30.07 in 9.0 mi Calm Calm - N/A   Overcast
6:54 AM 9.0 °F - 5.0 °F 84% 30.14 in 9.0 mi Calm Calm - N/A   Overcast
7:43 AM 10.4 °F - 6.8 °F 85% 30.11 in 9.0 mi Calm Calm - N/A   Overcast
7:54 AM 10.9 °F - 5.0 °F 77% 30.16 in 9.0 mi Calm Calm - N/A   Overcast
8:15 AM 10.4 °F - 5.0 °F 79% 30.12 in 7.0 mi Calm Calm - N/A   Overcast
8:25 AM 10.4 °F - 6.8 °F 85% 30.13 in 8.0 mi Calm Calm - N/A   Overcast
8:36 AM 10.4 °F 4.0 °F 6.8 °F 85% 30.13 in 8.0 mi NW 3.5 mph - N/A   Overcast
8:54 AM 12.0 °F - 6.1 °F 77% 30.19 in 7.0 mi Calm Calm - N/A   Overcast
9:54 AM 12.9 °F - 6.1 °F 74% 30.21 in 8.0 mi Calm Calm - N/A   Overcast
10:01 AM 12.2 °F - 6.8 °F 79% 30.16 in 8.0 mi Calm Calm - N/A   Overcast
10:54 AM 14.0 °F 8.2 °F 7.0 °F 74% 30.24 in 9.0 mi SW 3.5 mph - N/A   Overcast
11:15 AM 15.8 °F 6.1 °F 6.8 °F 68% 30.18 in 10.0 mi Variable 6.9 mph - N/A   Overcast
11:28 AM 17.6 °F 9.3 °F 6.8 °F 63% 30.17 in 10.0 mi Variable 5.8 mph - N/A   Overcast
11:54 AM 17.1 °F 5.0 °F 5.0 °F 59% 30.20 in 10.0 mi NNW 10.4 mph - 0.01 in   Partly Cloudy
12:54 PM 19.0 °F 11.1 °F 6.1 °F 57% 30.20 in 10.0 mi NNW 5.8 mph - 0.00 in   Partly Cloudy
1:54 PM 21.0 °F 9.3 °F 7.0 °F 55% 30.20 in 10.0 mi WNW 11.5 mph - 0.00 in   Partly Cloudy
2:54 PM 21.9 °F 11.7 °F 6.1 °F 51% 30.21 in 10.0 mi NW 9.2 mph - 0.00 in   Mostly Cloudy
3:54 PM 21.0 °F 8.6 °F 6.1 °F 53% 30.22 in 10.0 mi NW 12.7 mph - N/A   Overcast
4:54 PM 21.0 °F 10.6 °F 5.0 °F 50% 30.25 in 10.0 mi NNW 9.2 mph - N/A   Overcast
5:54 PM 18.0 °F 9.8 °F 6.1 °F 60% 30.29 in 10.0 mi NNW 5.8 mph - N/A   Partly Cloudy
6:54 PM 16.0 °F 8.8 °F 5.0 °F 62% 30.30 in 10.0 mi North 4.6 mph - N/A   Clear
7:54 PM 14.0 °F - 5.0 °F 67% 30.32 in 10.0 mi Calm Calm - N/A   Clear
8:54 PM 15.1 °F - 5.0 °F 64% 30.34 in 10.0 mi Calm Calm - N/A   Clear
9:54 PM 12.9 °F - 5.0 °F 71% 30.36 in 10.0 mi Calm Calm - N/A   Clear
10:54 PM 12.9 °F - 5.0 °F 71% 30.38 in 10.0 mi Calm Calm - N/A   Clear
11:54 PM 12.0 °F 5.9 °F 5.0 °F 73% 30.39 in 10.0 mi SW 3.5 mph - N/A   Clear